Regional Weather Roundup
Issued by NWS Midland/Odessa, TX

Skip options and go directly to product.
Home | Oldest Version | Previous Version | Current Version | All | Graphics & Text | Save Text | Print | Product List | Glossary On

Skip product version selection by date and time.   
104
ASUS44 KMAF 232110
RWRMAF
MIDLAND AREA WEATHER ROUNDUP
NATIONAL WEATHER SERVICE MIDLAND TX
400 PM CDT SAT JUL 23 2016

...IN SOUTHWEST TEXAS AND SOUTHEAST NEW MEXICO...

CITY           SKY/WX    TMP DP  RH WIND       PRES   REMARKS
ALPINE         SUNNY     95  50  21 SE9       30.11F
ANDREWS        FAIR      97  54  23 S9G16     29.99F
ARTESIA        SUNNY    100  46  16 E7G21     29.97F
BIG SPRING     SUNNY     98  60  27 SE14G22   29.98F
CARLSBAD       MOSUNNY  100  45  15 VRB5      29.94F
DRYDEN           N/A    101  59  24 SE14G20   29.91F HX 101
FORT STOCKTON  SUNNY    100  54  21 SE14      29.94F
GUAD PASS      SUNNY     94  45  18 VRB5G18   30.14F
HOBBS          SUNNY     95  46  18 SE10G17   30.02F
MARFA          SUNNY     93  51  23 NE8       30.10F
MIDLAND AIRPK  SUNNY    100  54  21 S10G20    29.98F
MIDLAND INTL   SUNNY     99  54  22 SE15G23   29.97F
ODESSA         SUNNY     99  55  23 S15G28    29.98F
PECOS          SUNNY    102  49  16 W6        29.90F
PRESIDIO       FAIR     102  51  18 SE9       29.93F
SEMINOLE       SUNNY     98  50  19 SE9G17    30.01F
SNYDER           N/A     96  61  31 SE10G16   29.97F
WINK           SUNNY    101  50  18 SE12G17   29.92F
$$
...OTHER STATIONS IN TEXAS...

CITY           SKY/WX    TMP DP  RH WIND       PRES   REMARKS
ABILENE        SUNNY     98  62  30 SE10      29.94F
AMARILLO       SUNNY     99  51  19 S18G26    30.00F
AUSTIN         MOSUNNY   99  67  35 SE14G22   29.91F HX 103
BROWNSVILLE    SUNNY     95  74  50 SE16G22   29.91F HX 105
CORPUS CHRISTI MOSUNNY   93  75  55 SE14G21   29.91F HX 104
DALLAS FTW     MOSUNNY   99  68  36 S9        29.90F HX 104
DEL RIO        SUNNY    101  61  26 S17G23    29.87F HX 102
EL PASO        MOSUNNY  103  42  12 VRB3      29.98F
HOUSTON INT    MOSUNNY   98  70  40 W5        29.92F HX 105
LUBBOCK        MOSUNNY   97  54  23 S15       30.00F
SAN ANGELO     MOSUNNY   99  61  28 E10G16    29.94F
SAN ANTONIO    MOSUNNY   96  66  37 VRB6      29.93F
WACO           SUNNY    100  65  31 S7        29.92F HX 103
WICHITA FALLS  NOT AVBL
$$
...OTHER LOCATIONS IN NEW MEXICO...

CITY           SKY/WX    TMP DP  RH WIND       PRES   REMARKS
ALAMAGORDO     SUNNY    100  43  14 W12       30.00F
ALBUQUERQUE    CLOUDY    97  43  15 VRB6      30.09F
CANNON AFB     SUNNY     98  45  16 SE7G21    30.04F
CLOVIS         SUNNY     97  48  19 S13       30.04F
HOLLOMAN AFB   SUNNY    101  42  13 SE8       29.97F
ROSWELL        SUNNY    102  44  14 SE14      29.97F
RUIDOSO          N/A     88  39  18 N5        30.24F
SANTA FE       SUNNY     98  42  14 NW12G18   30.15F
TRUTH OR CONSE SUNNY    100  42  13 SE9G17    30.03F
TUCUMCARI      SUNNY    105  41  11 S14       29.96F HX 100
$$

USA.gov is the U.S. government's official web portal to all federal, state and local government web resources and services.